Find Starlink 35649

NORAD ID: 66125 Int'l Des: 2025-237 Owner: SPXS Country: US Constellation: starlink operational
LEOCIRCULAR

当前视图

正在加载3D地球...

关于 Starlink 35649

正在加载描述...

即将过境

Passes for default location (London). Set your location on the main map for personalized predictions.

高度历史

Loading altitude history...

两行轨道根数

1 66125U 25237M 26146.40466845 .00012187 00000-0 42283-3 0 9996
2 66125 53.1615 38.3146 0001305 97.2696 262.8453 15.30206391 34519
Epoch: May 26, 2026 • Age: 13 hours

当前状态

高度 480.0 km
速度 7.63 km/s
星下点 49.75°N, 71.19°W
发射日期 Oct 22, 2025
运行时间 0.5 years
类型 internet

技术详情

分类 Payload
质量 575.00 kg
干质量 530.00 kg
总质量 575.00 kg
长度 0.30 m
直径 4.10 m
跨度 29.00 m
形状 Box + pan
制造商 SPXS
平台类型 Starlink V2MO
阶段状态 In Orbit
所有者/国家 SPXS/US

Most Searched